[Iaude] MPEC D20: 2018 CP14 [a=1.09,e=0.21,i=19.6,H=22.6]

mpec at mpcdb1.cfa.harvard.edu mpec at mpcdb1.cfa.harvard.edu
Sat Feb 17 11:15:47 EST 2018


M.P.E.C. 2018-D20                                Issued 2018 Feb. 17, 16:11 UT
 
     The Minor Planet Electronic Circulars contain information on unusual
         minor planets and routine data on comets.  They are published
    on behalf of Division F of the International Astronomical Union by the
          Minor Planet Center, Smithsonian Astrophysical Observatory,
                          Cambridge, MA 02138, U.S.A.

             Prepared using the Tamkin Foundation Computer Network

                              MPC at CFA.HARVARD.EDU
            URL https://www.minorplanetcenter.net/    ISSN 1523-6714


                                   2018 CP14
 
Observations:
     K18C14P* C2018 02 15.49807 09 43 48.72 +06 22 43.5          19.0 oUED020T08
     K18C14P  C2018 02 15.50831 09 43 47.60 +06 24 15.4          18.7 oUED020T08
     K18C14P  C2018 02 15.51847 09 43 46.50 +06 25 48.1          18.5 oUED020T08
     K18C14P  C2018 02 15.52862 09 43 45.41 +06 27 19.5          18.9 oUED020T08
     K18C14P  C2018 02 15.71201 09 43 29.95 +06 55 04.6          18.7 RrED020P93
     K18C14P  C2018 02 15.71882 09 43 29.16 +06 56 06.5          18.5 RrED020P93
     K18C14P  C2018 02 15.72113 09 43 28.94 +06 56 27.4          18.5 RrED020P93
     K18C14P  C2018 02 15.72806 09 43 28.15 +06 57 31.3          18.6 RrED020P93
     K18C14P  C2018 02 15.73268 09 43 27.62 +06 58 15.2          18.5 RrED020P93
     K18C14P KC2018 02 15.84457 09 43 22.68 +07 15 13.8                UED020J95
     K18C14P KC2018 02 15.84752 09 43 22.38 +07 15 40.9                UED020J95
     K18C14P KC2018 02 15.85066 09 43 22.07 +07 16 10.3          18.5 GUED020J95
     K18C14P HC2018 02 15.87175 09 43 19.78 +07 19 33.3                UED020204
     K18C14P KC2018 02 15.88321 09 43 18.56 +07 21 20.6          18.7 GUED020204
     K18C14P KC2018 02 15.88606 09 43 18.14 +07 21 49.4          18.4 RUED020K65
     K18C14P KC2018 02 15.90284 09 43 16.30 +07 24 26.3          18.9 RUED020K65
     K18C14P KC2018 02 15.90758 09 43 16.79 +07 25 17.0          18.4 RUED020Z84
     K18C14P KC2018 02 15.90793 09 43 15.64 +07 25 13.3          18.9 VSED020L01
     K18C14P KC2018 02 15.90951 09 43 15.45 +07 25 27.6          18.9 VSED020L01
     K18C14P KC2018 02 15.90975 09 43 16.55 +07 25 37.4          18.6 RUED020Z84
     K18C14P KC2018 02 15.91110 09 43 15.28 +07 25 42.8          18.9 VSED020L01
     K18C14P KC2018 02 15.91191 09 43 16.32 +07 25 57.6          18.6 RUED020Z84
     K18C14P KC2018 02 15.91267 09 43 15.13 +07 25 57.0          19.0 VSED020L01
     K18C14P KC2018 02 15.92098 09 43 14.31 +07 27 16.4          18.8 RUED020K65
     K18C14P  C2018 02 15.93217 09 43 12.90 +07 28 58.3          17.7 RrED020106
     K18C14P  C2018 02 15.93277 09 43 12.81 +07 29 05.1          18.2 RrED020106
     K18C14P  C2018 02 15.93338 09 43 12.77 +07 29 09.4          18.1 RrED020106
     K18C14P  C2018 02 15.93399 09 43 12.75 +07 29 16.2          17.7 RrED020106
     K18C14P  C2018 02 15.93459 09 43 12.71 +07 29 22.8          17.9 RrED020106
     K18C14P  C2018 02 15.93520 09 43 12.53 +07 29 28.4          18.0 RrED020106
     K18C14P  C2018 02 15.93641 09 43 12.47 +07 29 38.8          17.7 RrED020106
     K18C14P  C2018 02 15.93702 09 43 12.40 +07 29 46.5          17.6 RrED020106
     K18C14P  C2018 02 15.93763 09 43 12.35 +07 29 50.3          17.9 RrED020106
     K18C14P  C2018 02 15.93823 09 43 12.26 +07 29 55.5          17.9 RrED020106
     K18C14P  C2018 02 15.93884 09 43 12.15 +07 30 01.5          17.7 RrED020106
     K18C14P  C2018 02 15.93945 09 43 12.07 +07 30 06.8          17.7 RrED020106
     K18C14P  C2018 02 15.94005 09 43 12.03 +07 30 13.4          17.9 RrED020106
     K18C14P  C2018 02 15.94066 09 43 11.99 +07 30 18.7          17.7 RrED020106
     K18C14P  C2018 02 15.94127 09 43 11.93 +07 30 25.1          17.7 RrED020106
     K18C14P  C2018 02 15.94187 09 43 11.86 +07 30 31.0          18.2 RrED020106
     K18C14P  C2018 02 15.94248 09 43 11.81 +07 30 36.3          18.0 RrED020106
     K18C14P  C2018 02 15.94309 09 43 11.68 +07 30 41.8          17.5 RrED020106
     K18C14P  C2018 02 15.94369 09 43 11.63 +07 30 46.9          17.9 RrED020106
     K18C14P KC2018 02 15.95496009 43 11.18 +07 32 27.6          18.7 GUED020Z80
     K18C14P KC2018 02 15.96107 09 43 10.05 +07 33 31.2          19.1 GUED020203
     K18C14P KC2018 02 15.96460909 43 10.14 +07 33 56.9          18.7 GUED020Z80
     K18C14P KC2018 02 15.97425909 43 09.08 +07 35 29.1          18.6 GUED020Z80
     K18C14P KC2018 02 15.99493 09 43 06.29 +07 38 49.3                UED020203
     K18C14P KC2018 02 16.03373 09 43 02.03 +07 44 53.0          19.0 GUED020K38
     K18C14P KC2018 02 16.04812 09 43 00.41 +07 47 07.9          18.8 GUED020K38
     K18C14P KC2018 02 16.06726 09 42 58.31 +07 50 08.2          18.6 GUED020K38
     K18C14P  C2018 02 16.63994 09 42 07.15 +09 22 15.2          18.7 RrED020P93
     K18C14P  C2018 02 16.64156 09 42 06.91 +09 22 30.9          18.8 RrED020P93
     K18C14P  C2018 02 16.64318 09 42 06.77 +09 22 46.6          18.5 RrED020P93
     K18C14P  C2018 02 16.64479 09 42 06.56 +09 23 02.7          18.7 RrED020P93
     K18C14P KC2018 02 16.90701 09 41 43.24 +10 06 03.4          18.3 VqED020595
     K18C14P KC2018 02 16.91131 09 41 42.74 +10 06 46.8          18.2 VqED020595
     K18C14P KC2018 02 16.91561 09 41 42.25 +10 07 29.5          18.1 VqED020595
     K18C14P KC2018 02 17.05145 09 41 25.95 +10 30 06.7          18.3 RoED020K88
     K18C14P KC2018 02 17.05298 09 41 25.78 +10 30 22.4          18.5 RoED020K88
     K18C14P KC2018 02 17.05450 09 41 25.65 +10 30 37.3          18.3 RoED020K88
     K18C14P KC2018 02 17.32175 09 40 59.07 +11 15 55.3          18.1 VqED020932
     K18C14P KC2018 02 17.32808 09 40 58.38 +11 17 00.0          19.1 VqED020932
     K18C14P KC2018 02 17.33193 09 40 57.92 +11 17 38.6          18.8 VqED020932
     K18C14P KC2018 02 17.51174 09 40 44.51 +11 50 03.4          18.9 VqED020E23
     K18C14P KC2018 02 17.52100 09 40 43.37 +11 51 39.6          18.7 VqED020E23
     K18C14P KC2018 02 17.56030 09 40 38.39 +11 58 28.0          18.4 VqED020E23
     K18C14P KC2018 02 17.56713 09 40 37.48 +11 59 39.1          18.9 VqED020E23
     K18C14P KC2018 02 17.57975 09 40 35.94 +12 01 50.0          18.8 VqED020E23
 
Observer details:
106 Crni Vrh.  Observer J. Vales.  0.6-m f/3.3 Deltagraph + CCD.
203 GiaGa Observatory.  Observers S. Foglia, G. Galli.  Measurer G. Galli.
    0.28-m f/6.8 Schmidt-Cassegrain + CCD.
204 Schiaparelli Observatory.  Observer L. Buzzi.  0.60-m f/4.64 reflector
    + CCD.
595 Farra d'Isonzo.  Observers E. Pettarin, F. Piani.  Measurer E. Pettarin.
    0.61-m f/4.0 reflector + CCD.
932 John J. McCarthy Obs., New Milford.  Observers M. Robson, M. Polansky.
    0.4-m f/7.4 Schmidt-Cassegrain + CCD.
E23 Arcadia.  Observer A. Hidas.  0.35-m f/1.9 reflector + CCD.
J95 Great Shefford.  Observer P. Birtwhistle.  0.40-m f/6.0 Schmidt-Cassegrain
    + CCD.
K38 M57 Observatory, Saltrio.  Observer G. Baj.  0.30-m f/5.5 Ritchey-Chretien
    + CCD.
K65 Cesena.  Observer V. Tinella.  0.40-m f/7 Schmidt-Cassegrain + CCD.
K88 GINOP-KHK, Piszkesteto.  Observer A. Bodi.  Measurer K. Sarneczky.  0.60-m
    Schmidt + CCD.
L01 Visnjan Observatory, Tican.  Observer K. Korlevic.  1.0-m f/2.9 reflector
    + CCD.
P93 Space Tracking and Communications Center, JAXA.  Observers S. Urakawa,
    A. Asami, S. Okumura, T. Nimura.  1.0-m f/3.0 reflector + CCD.
T08 ATLAS-MLO, Mauna Loa.  Observers L. Denneau, A. Heinze, H. Weiland,
    J. Tonry.  Measurers L. Denneau, H. Flewelling, A. Heinze, B. Stalder,
    J. Tonry.  0.5-m f/2.0 Schmidt + CCD.
Z80 Northolt Branch Observatory.  Observer G. Wells.  Measurer D. Bamberger.
    0.25-m f/8 Ritchey-Chretien + CCD.
Z84 Calar Alto-Schmidt.  Observer E. Schwab.  Measurers E. Schwab, M. Micheli,
    D. Koschny.  0.8-m f/3 Schmidt + CCD.
 
Orbital elements:
2018 CP14                                                Earth MOID = 0.0178 AU
Epoch 2018 Mar. 23.0 TT = JDT 2458200.5                 MPC
M 308.29867              (2000.0)            P               Q
n   0.86302530     Peri.  104.35323     -0.26411452     +0.94853826
a   1.0925811      Node   148.58965     -0.96241130     -0.24729665
e   0.2126342      Incl.   19.58492     -0.06330882     -0.19778660
P   1.14           H   22.6           G   0.15           U   7
Residuals in seconds of arc
180215 T08  0.9-  1.0+    180215 K65  0.1+  0.3+    180215 Z80  0.3+  0.6+
180215 T08  0.5-  0.1-    180215 106  0.5-  0.9-    180215 203  0.3+  0.9+
180215 T08  0.1+  0.4+    180215 106  0.9-  0.3+    180216 K38  0.5+  0.3-
180215 T08  0.6+  0.4-    180215 106  0.5-  1.1-    180216 K38  0.1-  0.8-
180215 P93  0.7+  0.5+    180215 106  0.2+  0.0     180216 K38  0.3-  0.8-
180215 P93  0.0   0.2-    180215 106  0.6+  1.0+    180216 P93  1.0+  0.3+
180215 P93  0.5+  0.6-    180215 106  1.0-  0.8+    180216 P93  0.3+  0.1+
180215 P93  0.0   0.5-    180215 106  0.1+  0.1-    180216 P93  1.2+  0.1-
180215 P93  0.5-  0.8+    180215 106 (0.0   1.9+)   180216 P93  0.9+  0.2+
180215 J95  0.1+  0.0     180215 106  0.3+  0.0     180216 595  0.5+  0.0
180215 J95  0.1-  0.4-    180215 106  0.1-  0.5-    180216 595  0.5+  0.5+
180215 J95  0.0   0.4-    180215 106  0.7-  0.2-    180216 595  0.7+  0.2+
180215 204  0.1+  0.2-    180215 106  0.9-  0.6-    180217 K88  0.6-  0.1+
180215 204  0.1+  0.1-    180215 106  0.5-  0.4+    180217 K88  0.6-  0.4+
180215 K65  0.3+  0.2+    180215 106  0.1-  0.0     180217 K88  0.1+  0.1+
180215 K65  0.1+  0.1+    180215 106  0.0   0.7+    180217 932  0.2-  0.1-
180215 Z84  0.0   0.1+    180215 106  0.0   0.9+    180217 932  0.4+  0.1+
180215 L01  0.2+  0.5+    180215 106  0.2+  0.5+    180217 932  0.2+  0.5-
180215 L01  0.1-  0.0     180215 106  0.7-  0.3+    180217 E23  0.6-  0.3-
180215 Z84  0.0   0.2+    180215 106  0.5-  0.2-    180217 E23  0.3-  0.3-
180215 L01  0.0   0.3+    180215 Z80  0.5+  0.3+    180217 E23  0.4-  0.0
180215 Z84  0.1+  0.1+    180215 203  0.2+  0.7+    180217 E23  1.0-  0.1+
180215 L01  0.3+  0.2-    180215 Z80  0.5+  0.9-    180217 E23  0.1+  0.1-

Ephemeris:
2018 CP14                a,e,i = 1.09, 0.21, 20                  q = 0.8603
Date    TT    R. A. (2000) Decl.     Delta      r     Elong.  Phase     V
2018 01 18    09 56 42.1 -21 36 41   0.3071  1.2006   128.8    39.7    22.0
...
2018 02 02    09 55 45.9 -14 44 41   0.1995  1.1555   145.6    28.8    20.7
...
2018 02 10    09 50 22.4 -05 01 44   0.1505  1.1294   160.0    17.4    19.7
...
2018 02 16    09 43 06.3 +07 40 13   0.1217  1.1090   174.1     5.3    18.7
2018 02 17    09 41 33.2 +10 22 09   0.1179  1.1056   175.0     4.5    18.6
2018 02 18    09 39 53.3 +13 14 27   0.1144  1.1021   173.8     5.6    18.6
...
2018 02 24    09 26 58.3 +33 27 30   0.1021  1.0811   152.4    25.1    19.0
...
2018 03 04    08 55 42.0 +60 54 26   0.1101  1.0526   121.1    53.7    19.9
...
2018 03 19    02 54 09.0 +83 51 32   0.1680  0.9992    86.4    83.9    21.7

A. U. Tomatic                (C) Copyright 2018 MPC           M.P.E.C. 2018-D20



More information about the Iaude mailing list